DK8RG-15 Weather Reports


Display with metric or nautical units.
time (UTC)temp
F
wind
direction
speed
MPH
gust
MPH
rain 1hr
in
rain 24hr
in
rain mn
in
humidity
%
barometer
mb
20260504000019 54 0.0 0.0 0.00 0.00 0.00 69 1011.2
20260503235019 54 0.0 0.0 0.00 0.00 0.00 69 1011.2
20260503234019 54 0.0 0.0 0.00 0.00 0.00 69 1011.2
20260503233020 54 0.0 0.0 0.00 0.00 0.00 69 1011.2
20260503232019 54 0.0 0.0 0.00 0.00 0.00 69 1011.2
20260503231019 54 0.0 0.0 0.00 0.00 0.00 70 1011.1
20260503230020 54 0.0 0.0 0.00 0.00 0.00 70 1011.1
20260503225020 54 0.0 0.0 0.00 0.00 0.00 69 1011.1
20260503224020 54 0.0 0.0 0.00 0.00 0.00 69 1011.1
20260503223020 54 0.0 0.0 0.00 0.00 0.00 69 1011.1
20260503220026 54 0.0 0.0 0.00 0.00 0.00 68 1010.0
20260503215016 55 0.0 0.0 0.00 0.00 0.00 67 1010.1
20260503214015 55 0.0 0.0 0.00 0.00 0.00 66 1010.0
20260503213015 55 0.0 0.0 0.00 0.00 0.00 66 1010.0
20260503212015 55 0.0 0.0 0.00 0.00 0.00 66 1010.0
20260503211016 55 0.0 0.0 0.00 0.00 0.00 66 1010.0
20260503210016 57 0.0 0.0 0.00 0.00 0.00 66 1010.0
20260503205015 57 0.0 0.0 0.00 0.00 0.00 65 1010.0
20260503204016 58 0.0 0.0 0.00 0.00 0.00 63 1010.1
20260503203015 59 0.0 0.0 0.00 0.00 0.00 62 1010.1
20260503202015 59 0.0 0.0 0.00 0.00 0.00 62 1010.1
20260503201015 60 0.0 0.0 0.00 0.00 0.00 60 1010.2
20260503200016 62 0.0 0.0 0.00 0.00 0.00 58 1010.2
20260503195016 64 0.0 0.0 0.00 0.00 0.00 53 1010.2
20260503194016 66 0.0 0.0 0.00 0.00 0.00 48 1010.2
20260503193015 66 0.0 0.0 0.00 0.00 0.00 48 1010.2
20260503192015 66 0.0 0.0 0.00 0.00 0.00 50 1010.2
20260503191016 66 0.0 0.0 0.00 0.00 0.00 49 1010.3
20260503190015 67 0.0 0.0 0.00 0.00 0.00 46 1010.2
20260503185016 69 57 1.0 1.0 0.00 0.00 0.00 44 1009.3
20260503184015 70 50 1.0 1.0 0.00 0.00 0.00 43 1009.3
20260503183016 70 0.0 0.0 0.00 0.00 0.00 43 1009.3
20260503182015 71 0.0 0.0 0.00 0.00 0.00 41 1009.3
20260503181015 72 0.0 0.0 0.00 0.00 0.00 39 1009.3
20260503180016 73 0.0 0.0 0.00 0.00 0.00 37 1009.3
20260503175016 75 105 2.0 2.0 0.00 0.00 0.00 32 1009.2
20260503174016 75 0.0 0.0 0.00 0.00 0.00 30 1009.2
20260503173016 75 0.0 0.0 0.00 0.00 0.00 29 1009.2
20260503172015 76 0.0 0.0 0.00 0.00 0.00 28 1008.2
20260503171015 76 0.0 0.0 0.00 0.00 0.00 27 1009.1
20260503131015 79 188 1.0 1.0 0.00 0.00 0.00 25 1011.1
20260503081016 72 318 1.0 1.0 0.00 0.00 0.00 33 1013.0
20260503072016 68 295 1.0 1.0 0.00 0.00 0.00 37 1012.9
20260503071017 68 305 1.0 1.0 0.00 0.00 0.00 38 1013.0
20260503055018 60 0.0 0.0 0.00 0.00 0.00 42 1013.1
20260503054019 59 0.0 0.0 0.00 0.00 0.00 43 1013.2
20260503053018 57 0.0 0.0 0.00 0.00 0.00 46 1013.1
20260503052018 56 0.0 0.0 0.00 0.00 0.00 48 1013.1
20260503051018 54 0.0 0.0 0.00 0.00 0.00 50 1013.0
20260503050018 53 0.0 0.0 0.00 0.00 0.00 52 1013.0
20260503045019 52 0.0 0.0 0.00 0.00 0.00 54 1013.0
20260503044019 52 0.0 0.0 0.00 0.00 0.00 56 1013.0
20260503043018 52 0.0 0.0 0.00 0.00 0.00 56 1013.0
20260503042019 51 0.0 0.0 0.00 0.00 0.00 58 1013.0
20260503041018 50 0.0 0.0 0.00 0.00 0.00 60 1012.9
20260503040019 50 0.0 0.0 0.00 0.00 0.00 62 1013.0
20260503035018 50 0.0 0.0 0.00 0.00 0.00 62 1013.0
20260503034019 50 0.0 0.0 0.00 0.00 0.00 61 1012.9
20260503033018 50 0.0 0.0 0.00 0.00 0.00 60 1012.9
20260503032019 50 0.0 0.0 0.00 0.00 0.00 60 1012.9
20260503031019 50 0.0 0.0 0.00 0.00 0.00 60 1012.9
20260503030019 50 0.0 0.0 0.00 0.00 0.00 59 1012.9
20260503025018 50 0.0 0.0 0.00 0.00 0.00 59 1012.9
20260503024019 50 0.0 0.0 0.00 0.00 0.00 59 1012.9
20260503023019 50 0.0 0.0 0.00 0.00 0.00 59 1012.9
20260503022018 50 0.0 0.0 0.00 0.00 0.00 59 1012.9
20260503021018 50 0.0 0.0 0.00 0.00 0.00 59 1012.9
20260503020018 51 0.0 0.0 0.00 0.00 0.00 58 1013.0
20260503015018 52 0.0 0.0 0.00 0.00 0.00 58 1013.0
20260503014018 52 0.0 0.0 0.00 0.00 0.00 58 1013.0
20260503013018 52 0.0 0.0 0.00 0.00 0.00 57 1012.9
20260503012018 52 0.0 0.0 0.00 0.00 0.00 56 1012.9
20260503011018 53 0.0 0.0 0.00 0.00 0.00 55 1013.0
20260503010018 54 0.0 0.0 0.00 0.00 0.00 54 1014.0
20260503005019 54 0.0 0.0 0.00 0.00 0.00 52 1014.0
20260503004019 55 0.0 0.0 0.00 0.00 0.00 51 1014.0
20260503003019 55 0.0 0.0 0.00 0.00 0.00 50 1014.0
20260503002019 55 0.0 0.0 0.00 0.00 0.00 50 1014.0
20260503001019 55 0.0 0.0 0.00 0.00 0.00 50 1014.0